ONEWEB-0306 (49188 NORAD) Tracking and Keplerian Element Data

This shows tracking and keplerian element data for the satellite.

Feedback or suggestion? Click here.




ElementValue
Catalog49188
NameONEWEB-0306
Epoch Orbit590
Epoch Day288.16667824
Epoch Year2021
RAAN317.8545
Inclination87.4981
Eccentricity0.0021532
Argument of Perigee186.3919
Mean Anonmoly326.3104
Mean Motion14.91825405
Decay Rate-0.01434847
L11 49188U 21083C 21288.16667824 -.01434847 00000-0 -15495+0 0 9991
L22 49188 87.4981 317.8545 0021532 186.3919 326.3104 14.91825405 5904

Live tracking and technical data element details for ONEWEB-0306 (NORAD 49188). ONEWEB-0306 can be tracked NOW for your location showing map with azimuth and elevation plus other details from your city location.

Track the satellite on the map from your city or location and see movement details for azimuth, elevation, latitude, longitude, range, height, and movement on the map or in text.







IsCatalogInMostPopularTable: catalog: 49188, numindb: 9
Update: records affected: 1



GetName: 49188 ONEWEB-0306

Hit Count: updated at: Tue, 19 Oct 2021 08:56:33 GMT